• In Czech Republic
  • List of Countries
  • For 7 days
  • Water Temperature
  • Satellite Maps
  • Weather Map
  • Weather Widgets
  • user-avatar
    Login

    Hourly Weather Korkuteli

    Today, 20 February, Tuesday

    Time Temperature Precipitation Wind Pressure Humidity
    00:00 +7°C° 0 mm 1 mps 671 mmHg 90%
    01:00 +7°C° 0 mm 1 mps 671 mmHg 90%
    02:00 +7°C° 0 mm 1 mps 671 mmHg 91%
    03:00 +7°C° 0.2 mm 1 mps 671 mmHg 90%
    04:00 +7°C° 0.2 mm 1 mps 671 mmHg 90%
    05:00 +7°C° 0.2 mm 1 mps 671 mmHg 90%
    06:00 +7°C° 0.6 mm 1 mps 671 mmHg 90%
    07:00 +7°C° 0.6 mm 1 mps 671 mmHg 89%
    08:00 +7°C° 0 mm 1 mps 671 mmHg 89%
    09:00 +7°C° 0.9 mm 1 mps 671 mmHg 87%
    10:00 +8°C° 0.9 mm 1 mps 671 mmHg 85%
    11:00 +8°C° 0.9 mm 1 mps 671 mmHg 84%
    12:00 +7°C° 0.8 mm 2 mps 671 mmHg 84%
    13:00 +7°C° 0.8 mm 2 mps 670 mmHg 84%
    14:00 +7°C° 0 mm 2 mps 670 mmHg 86%
    15:00 +7°C° 0.7 mm 2 mps 670 mmHg 86%
    16:00 +6°C° 0.7 mm 2 mps 670 mmHg 87%
    17:00 +6°C° 0.7 mm 2 mps 670 mmHg 87%
    18:00 +7°C° 0.5 mm 1 mps 670 mmHg 88%
    19:00 +7°C° 0.5 mm 1 mps 669 mmHg 89%
    20:00 +7°C° 0.5 mm 1 mps 669 mmHg 91%
    21:00 +7°C° 0.5 mm 1 mps 669 mmHg 91%
    22:00 +6°C° 0.5 mm 1 mps 669 mmHg 91%
    23:00 +6°C° 0.5 mm 1 mps 670 mmHg 92%

    Tomorrow, 21 February, Wednesday

    Time Temperature Precipitation Wind Pressure Humidity
    00:00 +6°C° 0.7 mm 1 mps 669 mmHg 92%
    01:00 +6°C° 0.7 mm 1 mps 669 mmHg 93%
    02:00 +6°C° 0.7 mm 1 mps 669 mmHg 93%
    03:00 +6°C° 0.6 mm 1 mps 669 mmHg 93%
    04:00 +6°C° 0.6 mm 1 mps 669 mmHg 93%
    05:00 +6°C° 0.6 mm 1 mps 669 mmHg 93%
    06:00 +6°C° 0.7 mm 1 mps 669 mmHg 93%
    07:00 +6°C° 0.7 mm 1 mps 669 mmHg 92%
    08:00 +6°C° 0.7 mm 1 mps 669 mmHg 91%
    09:00 +7°C° 0.9 mm 1 mps 669 mmHg 89%
    10:00 +8°C° 0.9 mm 1 mps 669 mmHg 86%
    11:00 +7°C° 0.9 mm 2 mps 669 mmHg 84%
    12:00 +7°C° 0.7 mm 2 mps 669 mmHg 83%
    13:00 +8°C° 0.7 mm 2 mps 669 mmHg 82%
    14:00 +8°C° 0.7 mm 2 mps 669 mmHg 82%
    15:00 +8°C° 0.4 mm 2 mps 669 mmHg 83%
    16:00 +7°C° 0.4 mm 2 mps 669 mmHg 85%
    17:00 +7°C° 0.4 mm 2 mps 669 mmHg 87%
    18:00 +7°C° 0.8 mm 2 mps 669 mmHg 88%
    19:00 +8°C° 0.8 mm 1 mps 669 mmHg 90%
    20:00 +7°C° 0.8 mm 1 mps 669 mmHg 92%
    21:00 +7°C° 0.3 mm 1 mps 669 mmHg 92%
    22:00 +7°C° 0.3 mm 1 mps 669 mmHg 92%
    23:00 +6°C° 0.3 mm 1 mps 670 mmHg 93%

    Day after tomorrow, 22 February, Thursday

    Time Temperature Precipitation Wind Pressure Humidity
    00:00 +6°C° 0 mm 1 mps 670 mmHg 93%
    01:00 +6°C° 0 mm 1 mps 670 mmHg 93%
    02:00 +6°C° 0 mm 1 mps 670 mmHg 93%
    03:00 +6°C° 0 mm 1 mps 669 mmHg 93%
    04:00 +6°C° 0 mm 1 mps 669 mmHg 93%
    05:00 +6°C° 0 mm 1 mps 669 mmHg 93%
    06:00 +6°C° 0 mm 1 mps 669 mmHg 91%
    07:00 +6°C° 0 mm 1 mps 670 mmHg 90%
    08:00 +7°C° 0 mm 1 mps 670 mmHg 89%
    09:00 +8°C° 0 mm 1 mps 670 mmHg 84%
    10:00 +9°C° 0 mm 1 mps 670 mmHg 80%
    11:00 +10°C° 0 mm 1 mps 670 mmHg 76%
    12:00 +10°C° 0.1 mm 1 mps 670 mmHg 74%
    13:00 +10°C° 0.1 mm 2 mps 670 mmHg 72%
    14:00 +10°C° 0.1 mm 2 mps 670 mmHg 70%
    15:00 +10°C° 0.3 mm 2 mps 670 mmHg 73%
    16:00 +10°C° 0.3 mm 1 mps 669 mmHg 75%
    17:00 +10°C° 0.3 mm 1 mps 669 mmHg 78%
    18:00 +9°C° 0.2 mm 1 mps 669 mmHg 81%
    19:00 +9°C° 0.2 mm 1 mps 670 mmHg 84%
    20:00 +8°C° 0.2 mm 1 mps 670 mmHg 87%
    21:00 +8°C° 0.2 mm 1 mps 670 mmHg 87%
    22:00 +8°C° 0.2 mm 1 mps 670 mmHg 87%
    23:00 +7°C° 0.2 mm 1 mps 670 mmHg 88%

    23 February, Friday

    Time Temperature Precipitation Wind Pressure Humidity
    00:00 +7°C° 0.1 mm 1 mps 670 mmHg 88%
    01:00 +7°C° 0.1 mm 1 mps 670 mmHg 88%
    02:00 +7°C° 0.1 mm 1 mps 670 mmHg 88%
    03:00 +7°C° 0.1 mm 1 mps 670 mmHg 88%
    04:00 +7°C° 0.1 mm 1 mps 670 mmHg 88%
    05:00 +7°C° 0.1 mm 1 mps 669 mmHg 88%
    06:00 +7°C° 0.1 mm 1 mps 670 mmHg 87%
    07:00 +7°C° 0.1 mm 1 mps 670 mmHg 86%
    08:00 +7°C° 0.1 mm 1 mps 670 mmHg 85%
    09:00 +8°C° 0.1 mm 1 mps 670 mmHg 79%
    10:00 +9°C° 0.1 mm 1 mps 670 mmHg 73%
    11:00 +10°C° 0.1 mm 1 mps 670 mmHg 68%
    12:00 +11°C° 0.2 mm 1 mps 670 mmHg 65%
    13:00 +11°C° 0.2 mm 1 mps 670 mmHg 63%
    14:00 +12°C° 0.2 mm 1 mps 670 mmHg 61%
    15:00 +11°C° 0.3 mm 1 mps 670 mmHg 64%
    16:00 +11°C° 0.3 mm 1 mps 670 mmHg 67%
    17:00 +11°C° 0.3 mm 1 mps 669 mmHg 69%
    18:00 +10°C° 0.2 mm 1 mps 670 mmHg 74%
    19:00 +9°C° 0.2 mm 1 mps 670 mmHg 79%
    20:00 +7°C° 0.2 mm 0 mps 670 mmHg 84%
    21:00 +6°C° 0.1 mm 0 mps 670 mmHg 85%
    22:00 +6°C° 0.1 mm 0 mps 670 mmHg 86%
    23:00 +6°C° 0.1 mm 0 mps 670 mmHg 86%

    24 February, Saturday

    Time Temperature Precipitation Wind Pressure Humidity
    00:00 +5°C° 0 mm 0 mps 670 mmHg 86%
    01:00 +5°C° 0 mm 0 mps 670 mmHg 86%
    02:00 +5°C° 0 mm 0 mps 670 mmHg 86%
    03:00 +6°C° 0 mm 1 mps 670 mmHg 86%
    04:00 +6°C° 0 mm 1 mps 670 mmHg 86%
    05:00 +5°C° 0 mm 1 mps 669 mmHg 86%
    06:00 +6°C° 0 mm 1 mps 670 mmHg 82%
    07:00 +7°C° 0 mm 1 mps 670 mmHg 79%
    08:00 +8°C° 0 mm 1 mps 671 mmHg 75%
    09:00 +10°C° 0 mm 1 mps 671 mmHg 70%
    10:00 +11°C° 0 mm 1 mps 671 mmHg 64%
    11:00 +12°C° 0 mm 1 mps 671 mmHg 59%
    12:00 +12°C° 0.1 mm 2 mps 671 mmHg 57%
    13:00 +13°C° 0.1 mm 2 mps 671 mmHg 55%
    14:00 +13°C° 0.1 mm 2 mps 671 mmHg 53%
    15:00 +12°C° 0.1 mm 3 mps 670 mmHg 57%
    16:00 +11°C° 0.1 mm 3 mps 670 mmHg 61%
    17:00 +10°C° 0.1 mm 3 mps 670 mmHg 65%
    18:00 +9°C° 0 mm 2 mps 670 mmHg 71%
    19:00 +8°C° 0 mm 2 mps 669 mmHg 77%
    20:00 +7°C° 0 mm 2 mps 669 mmHg 83%
    21:00 +7°C° 0.1 mm 2 mps 669 mmHg 83%
    22:00 +7°C° 0.1 mm 2 mps 669 mmHg 83%
    23:00 +7°C° 0.1 mm 2 mps 669 mmHg 83%

    25 February, Sunday

    Time Temperature Precipitation Wind Pressure Humidity
    00:00 +7°C° 0.4 mm 2 mps 669 mmHg 85%
    01:00 +7°C° 0.4 mm 2 mps 669 mmHg 86%
    02:00 +7°C° 0.4 mm 2 mps 669 mmHg 88%
    03:00 +7°C° 0.3 mm 2 mps 669 mmHg 89%
    04:00 +6°C° 0.3 mm 2 mps 668 mmHg 90%
    05:00 +6°C° 0.3 mm 2 mps 668 mmHg 91%
    06:00 +6°C° 0.1 mm 2 mps 668 mmHg 89%
    07:00 +6°C° 0.1 mm 2 mps 668 mmHg 86%
    08:00 +6°C° 0.1 mm 2 mps 668 mmHg 84%
    09:00 +7°C° 0.1 mm 2 mps 668 mmHg 76%
    10:00 +8°C° 0.1 mm 2 mps 668 mmHg 68%
    11:00 +9°C° 0.1 mm 3 mps 668 mmHg 61%
    12:00 +9°C° 0.1 mm 3 mps 668 mmHg 59%
    13:00 +10°C° 0.1 mm 3 mps 668 mmHg 58%
    14:00 +10°C° 0.1 mm 3 mps 668 mmHg 57%
    15:00 +10°C° 0.2 mm 3 mps 668 mmHg 60%
    16:00 +9°C° 0.2 mm 3 mps 667 mmHg 63%
    17:00 +9°C° 0.2 mm 3 mps 667 mmHg 66%
    18:00 +8°C° 0.2 mm 2 mps 667 mmHg 71%
    19:00 +7°C° 0.2 mm 2 mps 667 mmHg 76%
    20:00 +7°C° 0.2 mm 1 mps 667 mmHg 82%
    21:00 +7°C° 0.1 mm 1 mps 667 mmHg 83%
    22:00 +6°C° 0.1 mm 1 mps 667 mmHg 84%
    23:00 +6°C° 0.1 mm 1 mps 667 mmHg 85%
    Show more